Wind_Speed
34 31 27 27 27 25 21 18 14 13 13 14 14 14 15 16 17 20 21 22 23 25 29 34 42 47 52 54 49 45 45 44 48 62 51 48 48 45 42 38 34 34 30
36 31 27 26 28 27 21 15 12 12 11 11 12 14 18 18 18 21 19 22 27 31 35 41 43 49 48 47 49 51 47 46 46 51 56 50 49 47 43 40 36 33 32
37 30 31 28 24 21 17 13 12 11 11 12 13 11 17 17 16 18 23 26 33 35 42 43 46 49 51 49 44 49 50 48 43 43 54 45 47 43 39 39 37 32 35
37 32 28 23 18 17 17 14 11 10 11 11 12 12 13 11 17 20 24 30 32 38 41 45 49 46 47 48 47 47 51 47 45 45 50 48 46 34 34 36 35 32 33
37 31 24 18 15 16 15 11 9 9 9 10 11 12 13 13 19 23 29 33 38 39 39 48 49 43 45 43 41 41 42 43 41 39 43 40 38 33 33 33 32 30 31
35 29 21 17 15 18 14 11 10 8 9 10 11 10 13 15 20 25 32 36 38 40 45 49 47 46 47 39 33 28 29 35 42 41 37 35 31 30 34 33 31 27 29
34 28 24 18 16 16 13 11 9 9 9 9 9 10 12 16 21 27 32 35 39 42 43 48 47 48 48 39 31 31 27 26 33 38 40 38 33 26 27 28 29 28 31
31 26 19 16 16 14 12 9 8 7 8 9 8 10 13 16 20 25 31 33 35 35 37 41 48 50 46 38 34 22 15 15 21 26 32 34 36 30 26 26 25 24 25
29 24 18 17 16 12 9 9 8 6 6 6 7 11 15 16 20 24 30 32 34 37 36 41 46 47 38 28 21 13 13 19 19 22 24 22 24 28 28 21 22 22 24
27 22 17 15 14 9 7 9 7 7 7 8 10 11 16 16 19 23 28 32 32 35 31 41 48 51 40 21 15 12 13 17 15 12 13 17 17 18 27 23 19 21 21
25 19 15 12 10 6 7 8 6 6 9 9 11 13 16 17 18 21 27 28 30 35 30 34 40 48 52 42 23 12 15 14 7 3 3 7 12 16 18 19 16 18 15
22 17 8 10 8 5 7 8 10 9 15 14 13 14 14 15 16 21 23 22 23 28 26 27 30 37 42 51 38 20 18 25 26 24 17 12 9 9 13 15 15 17 16
22 13 12 23 13 17 15 9 19 15 14 17 15 13 13 10 14 20 19 19 18 19 20 23 26 32 36 38 47 47 35 33 28 17 14 19 17 15 10 11 10 10 11
23 19 26 27 21 22 20 19 11 12 14 17 17 13 10 9 15 21 21 18 18 13 14 17 22 26 31 35 38 42 44 45 46 45 39 29 16 12 16 12 9 7 5
19 21 26 26 29 23 21 17 24 23 17 15 10 12 7 10 15 20 20 17 17 13 10 14 20 26 28 31 35 38 37 36 39 37 39 39 37 36 35 30 27 25 25
17 23 23 18 22 28 24 25 14 14 17 14 10 8 5 8 12 17 18 16 14 12 12 17 20 23 24 25 27 29 32 34 34 33 32 30 30 30 31 31 30 29 26
18 23 22 18 25 25 20 11 14 13 11 14 12 7 3 7 11 15 18 15 14 14 16 18 17 18 20 22 22 22 24 24 25 29 30 31 29 28 26 23 23 22 24
12 13 15 18 20 16 10 11 12 13 15 17 12 7 3 6 9 13 16 14 14 17 19 18 18 16 16 16 17 17 16 17 18 20 22 22 23 23 24 23 23 22 21
5 11 17 15 13 12 10 11 13 14 18 15 13 7 5 6 6 9 14 15 14 15 18 17 16 18 17 17 16 14 14 12 13 14 15 16 17 17 17 16 15 15 14
10 9 10 12 13 11 9 11 14 18 20 17 10 9 7 7 4 4 9 13 13 13 15 18 17 16 17 17 16 15 13 12 11 11 13 13 13 14 14 14 14 14 15
8 9 8 6 9 9 9 10 13 17 17 12 11 8 6 2 2 2 7 8 9 11 13 16 17 17 16 17 16 15 15 13 12 11 11 11 10 9 10 10 11 12 13
6 12 10 9 8 7 5 7 12 16 15 14 13 10 7 3 3 0 5 5 7 9 11 15 17 17 16 18 18 16 14 13 12 10 9 9 9 9 10 12 12 14 14
9 8 11 11 7 8 9 11 14 15 17 16 14 13 10 6 3 1 6 4 4 6 10 15 16 15 16 18 17 17 15 13 12 11 9 10 10 11 12 13 13 13 14
4 4 5 9 10 8 8 10 13 18 15 17 14 14 11 8 4 1 5 2 4 7 10 14 17 17 17 17 17 16 15 14 12 10 11 12 12 13 14 14 14 14 14
6 4 6 11 12 12 15 14 11 12 15 19 17 14 12 7 2 1 3 5 5 7 10 13 15 16 16 16 16 16 15 14 12 11 10 11 13 14 14 15 15 16 17
8 9 10 13 15 15 14 13 16 16 16 16 14 11 8 5 1 2 3 6 6 8 11 12 13 14 15 16 16 16 16 15 14 14 12 13 14 14 14 14 14 16 17
Wind_Direction
226 221 225 235 233 233 237 246 266 290 301 310 314 313 315 320 321 316 314 313 314 312 312 307 305 306 301 298 294 287 282 272 266 283 279 276 274 275 270 267 265 260 266
228 230 232 242 240 237 237 247 270 283 289 298 311 323 324 320 321 325 320 319 318 314 316 315 312 314 308 300 291 287 279 269 259 264 276 273 272 270 272 262 262 262 258
223 229 235 238 240 240 240 252 267 277 286 300 309 321 314 323 331 330 325 314 313 313 317 320 318 313 312 307 298 285 281 276 262 259 265 267 272 271 265 259 258 260 248
223 231 241 238 233 236 244 251 268 282 288 296 305 316 317 329 331 329 322 324 323 324 325 326 323 320 313 304 296 290 284 274 267 265 263 265 270 265 253 255 258 253 249
232 234 234 225 234 242 248 261 272 276 280 296 297 317 320 324 331 320 325 329 334 329 328 332 337 320 315 304 290 285 276 268 266 259 260 263 258 250 238 243 252 254 251
234 227 215 224 243 244 247 257 268 264 278 288 306 308 324 331 326 329 327 332 337 341 340 341 342 332 328 310 294 282 279 258 259 255 254 252 256 244 246 241 246 245 252
226 220 222 233 242 242 247 255 262 267 291 301 305 307 323 326 325 326 333 333 335 338 348 350 349 345 334 319 299 285 278 262 247 250 254 246 243 251 243 240 240 238 240
216 217 221 242 234 229 245 254 267 283 297 308 292 307 316 319 319 326 339 342 343 345 346 354 358 348 341 321 306 284 270 267 258 250 247 250 239 234 238 242 242 246 244
210 219 242 244 229 232 245 261 262 273 287 293 297 305 302 312 318 328 339 345 350 351 356 1 2 356 343 331 326 305 287 286 277 256 250 255 245 234 234 241 238 237 237
224 235 243 226 221 232 259 268 277 273 300 296 300 295 294 305 318 331 339 346 350 351 360 7 14 11 4 1 2 351 336 323 291 255 257 242 237 228 221 225 238 234 239
230 231 221 219 220 246 272 266 264 267 292 279 297 289 287 303 314 330 337 348 350 357 1 359 15 15 14 28 42 34 51 15 10 161 176 186 192 198 205 217 230 228 234
220 212 223 213 220 254 278 261 276 267 272 276 284 281 279 301 320 332 337 348 350 357 5 6 15 17 21 24 44 52 68 75 56 69 95 117 153 192 201 202 222 243 241
200 201 227 210 211 271 234 260 280 255 264 268 278 266 281 297 326 341 345 352 353 3 21 23 27 20 23 31 36 48 59 68 78 84 75 64 94 122 164 179 188 197 195
227 234 212 219 256 267 235 260 263 278 272 265 276 263 268 309 335 349 355 356 356 359 9 17 24 30 26 41 41 45 50 58 64 68 68 79 102 88 112 108 109 115 130
214 215 219 237 268 243 239 272 271 260 265 279 228 249 253 312 346 358 359 357 2 4 10 22 24 23 31 39 46 49 54 54 55 58 63 68 70 73 74 78 81 84 82
242 223 229 261 246 230 252 291 269 247 245 233 231 224 273 333 356 5 6 358 3 10 17 37 37 39 37 42 45 50 55 60 62 60 59 62 66 66 70 71 71 70 68
245 232 265 245 239 246 273 271 274 279 230 217 195 212 286 335 352 4 14 2 12 20 34 34 33 36 39 41 44 42 46 56 61 65 68 66 68 67 66 70 70 69 66
258 251 254 248 245 263 254 260 262 234 213 190 193 207 277 308 334 357 13 5 25 28 32 31 32 29 25 25 27 30 41 43 48 55 61 63 63 64 66 67 65 65 65
269 261 256 252 253 246 257 252 234 201 193 197 195 221 248 271 318 340 13 15 28 27 24 23 23 24 28 32 34 33 30 36 41 45 48 51 55 58 61 60 56 51 45
245 254 251 251 244 234 237 233 200 193 199 199 216 190 219 199 227 359 19 16 20 16 18 16 18 17 24 30 35 37 37 37 39 39 43 44 50 57 53 42 30 24 24
246 232 218 193 207 217 214 220 203 195 197 191 169 189 195 199 147 88 18 16 7 8 10 7 9 16 23 28 31 34 34 35 36 38 37 34 35 39 41 28 15 6 3
213 200 214 214 202 210 200 195 201 190 183 173 170 184 182 181 169 47 11 355 4 0 3 360 4 11 18 19 22 24 27 32 35 36 35 26 20 14 13 10 6 3 2
157 191 210 219 210 196 195 204 201 192 169 165 175 179 182 187 188 341 355 348 350 346 347 351 4 8 12 12 15 18 21 23 27 30 23 17 14 12 10 6 1 358 359
157 121 162 177 178 176 173 170 160 168 170 183 174 178 182 182 181 5 337 296 304 324 342 347 355 0 2 10 14 15 16 19 16 11 6 1 4 8 9 8 8 4 359
173 205 191 172 170 164 149 148 158 178 176 172 178 179 176 175 156 2 319 268 296 321 335 345 351 356 360 5 7 10 9 9 10 8 0 353 354 3 3 0 358 360 0
143 149 136 144 145 141 154 163 170 168 175 169 173 175 176 169 137 323 276 259 287 314 329 342 355 355 1 1 3 5 5 5 3 2 355 351 350 350 350 349 348 349 351
Height
1532 1536 1539 1542 1542 1545 1546 1548 1548 1547 1545 1542 1540 1538 1536 1534 1532 1529 1526 1522 1518 1514 1511 1508 1503 1497 1489 1483 1479 1475 1472 1471 1462 1447 1454 1457 1459 1461 1463 1465 1467 1468 1471
1527 1535 1536 1536 1538 1540 1542 1542 1542 1541 1540 1537 1534 1535 1537 1533 1529 1526 1522 1519 1515 1509 1504 1498 1491 1484 1476 1470 1464 1458 1455 1455 1452 1443 1439 1441 1442 1447 1449 1453 1455 1457 1459
1521 1528 1530 1531 1532 1535 1538 1537 1537 1536 1535 1534 1534 1525 1532 1529 1525 1521 1518 1514 1510 1505 1497 1488 1479 1470 1460 1453 1446 1442 1438 1437 1437 1434 1425 1431 1430 1434 1436 1440 1443 1446 1449
1517 1522 1526 1528 1529 1533 1534 1533 1532 1531 1529 1529 1529 1527 1526 1524 1520 1516 1513 1508 1502 1496 1488 1480 1468 1457 1448 1438 1432 1426 1423 1421 1421 1422 1419 1419 1422 1424 1428 1430 1432 1436 1438
1514 1518 1522 1525 1528 1531 1532 1530 1527 1526 1526 1526 1527 1525 1524 1521 1518 1513 1508 1501 1494 1486 1478 1469 1456 1445 1436 1426 1418 1412 1409 1407 1408 1409 1409 1410 1412 1416 1417 1422 1425 1429 1430
1513 1516 1519 1521 1524 1525 1526 1526 1525 1522 1521 1523 1522 1521 1521 1518 1515 1510 1504 1496 1489 1480 1468 1458 1445 1433 1422 1411 1404 1401 1398 1396 1396 1398 1399 1401 1403 1406 1411 1416 1419 1423 1422
1507 1510 1513 1518 1520 1521 1522 1521 1520 1520 1520 1521 1519 1518 1517 1514 1511 1506 1499 1492 1484 1474 1465 1451 1436 1424 1411 1400 1393 1390 1386 1386 1386 1388 1388 1391 1396 1398 1405 1408 1411 1415 1416
1504 1508 1513 1515 1515 1515 1517 1518 1518 1518 1520 1518 1517 1516 1513 1509 1505 1501 1494 1488 1480 1471 1462 1450 1434 1419 1405 1392 1381 1379 1377 1377 1378 1378 1379 1381 1386 1392 1396 1401 1406 1409 1412
1502 1506 1509 1510 1512 1512 1514 1514 1513 1515 1515 1514 1514 1513 1512 1508 1503 1497 1490 1482 1475 1468 1458 1446 1434 1419 1400 1387 1379 1376 1374 1372 1371 1370 1372 1374 1378 1384 1390 1396 1400 1403 1404
1499 1502 1504 1505 1507 1508 1509 1512 1512 1512 1512 1512 1512 1509 1509 1505 1501 1495 1488 1479 1473 1464 1455 1446 1433 1419 1403 1387 1379 1376 1370 1365 1362 1362 1364 1367 1373 1378 1385 1391 1396 1399 1402
1496 1499 1501 1503 1504 1506 1506 1507 1508 1507 1509 1508 1507 1506 1506 1503 1498 1492 1485 1478 1473 1463 1454 1446 1436 1423 1410 1392 1382 1377 1371 1365 1360 1361 1364 1367 1372 1377 1382 1387 1392 1397 1400
1494 1497 1501 1502 1504 1503 1505 1505 1504 1500 1503 1503 1501 1501 1501 1498 1496 1491 1482 1477 1474 1464 1455 1449 1441 1430 1416 1401 1387 1381 1374 1369 1360 1359 1364 1368 1373 1378 1382 1387 1391 1393 1397
1489 1491 1494 1499 1496 1495 1498 1497 1496 1497 1497 1500 1498 1498 1497 1495 1493 1487 1480 1475 1473 1466 1459 1452 1445 1436 1426 1412 1403 1391 1382 1377 1373 1366 1371 1372 1377 1379 1383 1387 1390 1392 1394
1483 1484 1486 1490 1489 1488 1492 1491 1492 1493 1494 1495 1494 1494 1494 1492 1489 1483 1477 1474 1471 1465 1460 1453 1448 1440 1433 1424 1414 1405 1399 1394 1390 1386 1385 1379 1379 1380 1383 1387 1388 1391 1393
1477 1480 1482 1485 1484 1485 1486 1487 1486 1487 1489 1489 1489 1491 1490 1489 1485 1482 1477 1472 1467 1464 1460 1453 1449 1443 1437 1432 1424 1418 1411 1407 1403 1401 1396 1396 1394 1392 1393 1395 1395 1396 1396
1474 1476 1478 1479 1479 1481 1482 1481 1480 1481 1483 1485 1486 1490 1488 1485 1484 1481 1477 1472 1467 1463 1459 1454 1452 1448 1444 1439 1434 1429 1424 1419 1415 1413 1411 1409 1406 1405 1404 1404 1405 1404 1404
1471 1473 1474 1473 1475 1478 1479 1477 1476 1477 1479 1482 1484 1487 1486 1484 1483 1482 1478 1472 1467 1463 1460 1457 1455 1452 1448 1444 1440 1437 1433 1430 1426 1422 1419 1418 1417 1414 1413 1412 1412 1411 1410
1469 1469 1469 1470 1473 1473 1474 1474 1473 1474 1476 1479 1482 1484 1484 1483 1480 1481 1479 1474 1468 1464 1463 1462 1460 1456 1451 1447 1444 1442 1439 1437 1433 1429 1427 1425 1423 1421 1420 1419 1419 1418 1417
1465 1465 1466 1468 1468 1468 1469 1469 1470 1472 1476 1477 1480 1482 1482 1481 1481 1481 1479 1475 1470 1467 1467 1465 1462 1459 1455 1450 1447 1444 1441 1439 1437 1435 1433 1431 1428 1427 1426 1425 1424 1422 1421
1462 1463 1463 1463 1464 1466 1466 1466 1468 1471 1474 1476 1477 1478 1479 1479 1480 1479 1478 1476 1473 1472 1470 1468 1465 1461 1457 1453 1449 1446 1444 1442 1440 1438 1436 1434 1432 1430 1429 1428 1426 1424 1423
1458 1459 1460 1461 1462 1463 1465 1465 1467 1470 1473 1474 1475 1477 1478 1477 1478 1478 1475 1476 1475 1474 1472 1470 1466 1463 1460 1456 1453 1449 1446 1445 1442 1439 1438 1436 1435 1432 1431 1430 1429 1427 1425
1454 1457 1459 1460 1461 1462 1463 1464 1465 1468 1471 1473 1475 1477 1477 1477 1478 1478 1475 1475 1476 1475 1473 1472 1468 1465 1461 1457 1454 1451 1449 1446 1444 1442 1440 1438 1437 1434 1432 1430 1429 1427 1424
1454 1456 1457 1459 1460 1462 1462 1464 1466 1468 1470 1473 1474 1476 1477 1478 1478 1477 1474 1475 1477 1475 1473 1471 1470 1466 1463 1460 1456 1452 1449 1447 1446 1444 1442 1440 1439 1436 1434 1431 1429 1427 1425
1455 1456 1457 1458 1459 1460 1461 1463 1466 1469 1470 1473 1475 1476 1477 1477 1477 1476 1475 1476 1477 1476 1474 1472 1470 1467 1464 1461 1457 1453 1451 1448 1446 1444 1442 1440 1437 1435 1433 1431 1429 1427 1425
1454 1456 1457 1458 1459 1459 1462 1465 1467 1468 1469 1471 1474 1475 1476 1476 1477 1476 1476 1476 1476 1476 1474 1473 1471 1468 1465 1461 1458 1455 1452 1449 1447 1445 1442 1440 1438 1436 1433 1431 1429 1427 1424
1454 1457 1458 1459 1460 1461 1463 1464 1467 1469 1470 1473 1474 1476 1477 1477 1477 1477 1476 1476 1476 1475 1475 1473 1471 1468 1465 1461 1458 1455 1452 1450 1447 1444 1442 1440 1438 1435 1433 1431 1429 1426 1424